Helicity
45 42 46 38 37 35 34 32 34 25 31 38 48 59 59 51 53 -11 -20 5 9 7 20 23 28 76 37 14 36 17 59 63 130 128 270 80 65 21 58 98 37 15 19 -29 38
43 48 45 34 35 23 31 31 38 30 30 37 43 64 57 49 -14 -12 63 23 42 10 25 18 -13 -95 -64 -35 -4 43 68 6 13 26 -55 -86 40 139 115 87 125 198 91 97 81
41 46 44 43 23 22 24 28 32 32 36 32 50 69 65 37 30 28 -0 133 126 49 48 34 38 -20 -42 -24 7 28 72 17 23 3 -5 -10 59 127 143 61 13 57 56 78 82
56 44 50 30 21 18 14 22 23 39 38 43 63 77 82 20 65 55 26 24 100 71 62 80 4 3 40 66 40 27 48 7 46 97 82 51 104 73 3 -51 -17 53 52 70 92
59 44 47 26 14 9 15 21 15 32 37 65 69 81 43 42 130 40 7 55 72 63 71 68 57 22 41 58 2 -25 37 53 51 67 47 67 49 35 22 33 46 55 59 85 87
48 37 30 -0 6 14 23 -8 32 44 64 72 80 80 20 86 41 37 -50 34 97 56 82 75 52 4 35 15 23 21 90 127 88 82 61 80 61 26 3 102 106 89 67 87 76
23 22 12 9 7 11 17 -18 48 59 81 74 68 35 38 117 40 71 53 59 67 60 44 57 29 18 23 -8 31 53 95 123 110 85 51 66 49 16 42 107 108 83 68 59 48
5 5 8 -1 4 23 31 51 60 79 83 70 66 -2 50 48 42 96 71 65 21 30 40 21 45 44 72 53 42 48 20 -13 -3 22 59 33 27 31 87 140 81 30 28 32 14
4 7 -10 -23 14 32 51 69 74 86 61 49 39 5 84 82 61 68 37 62 45 30 33 31 37 84 61 54 53 68 10 -8 -32 1 26 12 6 58 97 110 133 93 106 146 149
14 12 -18 -32 49 61 66 63 50 51 59 66 60 57 40 61 81 70 54 39 47 61 72 69 63 62 55 42 22 29 40 26 7 7 23 1 5 113 143 198 203 200 249 334 345
23 -5 -17 -31 21 48 60 67 86 87 68 107 60 45 64 67 23 63 42 50 53 50 84 115 54 41 59 41 18 23 83 29 46 59 27 30 74 195 226 312 312 325 396 487 548
30 -5 -17 -30 36 46 65 89 74 57 81 78 98 49 65 50 88 74 50 36 45 30 77 98 82 78 42 38 23 42 44 62 99 89 25 82 144 171 205 225 246 343 408 435 492
16 15 -8 -1 31 48 68 91 68 79 93 89 60 45 82 32 64 58 46 48 44 57 71 65 89 52 32 55 65 73 84 110 77 91 105 134 143 155 191 226 252 284 283 280 270
32 20 44 20 72 56 119 90 77 49 50 75 42 54 51 34 65 71 66 61 84 60 73 55 95 63 71 46 45 104 127 127 104 101 99 134 106 188 224 279 256 241 267 219 154
39 80 39 47 78 98 127 98 59 59 57 58 54 59 42 36 51 72 94 88 88 62 67 67 65 74 79 54 60 51 82 92 87 104 118 146 169 181 230 221 228 252 245 135 56
65 84 67 109 114 107 98 76 51 70 89 65 48 49 46 56 61 87 113 113 97 134 154 91 58 62 47 68 56 53 77 107 117 101 107 121 136 113 180 203 259 216 155 83 20
111 42 78 79 117 72 72 63 72 90 68 56 48 43 40 52 61 108 128 152 114 130 151 128 78 64 64 55 62 68 83 66 75 55 44 67 84 84 56 130 208 163 81 58 45
95 68 131 128 109 66 71 58 106 101 77 60 47 50 34 49 95 126 119 123 143 86 95 57 77 75 86 53 24 37 40 40 25 25 47 63 98 104 92 205 178 122 149 84 58
98 143 137 131 81 68 39 75 128 91 55 57 68 53 69 78 75 98 102 87 83 86 53 42 57 62 55 53 25 25 38 5 34 31 48 41 73 107 108 218 151 97 90 86 113
161 137 136 119 72 83 19 131 120 84 71 89 49 41 23 53 89 87 90 103 75 86 62 29 55 50 50 42 55 16 1 15 18 37 38 46 100 136 165 142 156 130 83 119 193
162 145 148 112 91 55 56 149 157 130 44 70 64 43 43 44 90 106 72 80 92 84 89 66 51 54 54 62 37 44 37 43 35 46 58 55 73 116 183 136 192 185 279 333 297
160 133 170 114 118 27 63 144 155 131 117 82 48 47 20 72 89 71 44 48 80 69 80 83 44 79 51 79 58 35 52 51 61 44 83 113 78 150 231 180 246 299 366 364 393
176 149 171 100 69 79 100 160 136 85 85 77 51 54 73 100 70 70 72 72 64 57 54 82 75 90 88 84 72 62 78 81 103 93 86 121 74 198 260 274 283 347 355 358 361
161 145 184 127 112 26 101 140 111 111 69 69 78 117 144 125 109 53 81 53 58 67 66 91 80 47 5 22 59 86 111 103 114 126 126 170 151 244 282 320 332 346 329 320 316
164 131 125 121 132 95 97 88 83 95 83 84 109 110 98 90 95 63 48 56 81 89 85 91 66 84 104 108 85 83 107 113 115 134 176 109 152 141 264 275 256 275 278 283 257
130 118 154 124 143 136 145 102 77 94 69 75 69 116 95 41 23 11 49 50 50 89 94 115 72 106 82 119 122 78 96 85 104 135 130 180 176 191 239 269 295 268 234 198 169
145 122 115 162 170 144 142 109 63 77 116 94 82 102 122 63 57 69 75 90 66 70 95 99 89 100 59 123 114 73 98 170 169 150 176 213 166 300 298 288 240 208 188 161 151
Wind_Speed
41 50 56 64 65 62 61 58 53 48 51 56 55 54 54 54 54 48 53 31 27 28 19 21 22 33 35 35 36 28 18 14 16 17 31 37 24 20 24 19 27 31 19 27 34
44 48 61 67 61 63 61 56 53 47 50 54 53 52 51 50 49 52 49 35 11 23 26 17 24 15 30 37 36 32 23 44 27 5 27 21 3 15 21 24 30 23 21 32 46
47 53 63 56 59 58 60 54 47 45 50 51 51 48 47 44 42 38 30 37 18 32 34 26 33 32 41 39 42 42 39 27 35 43 40 25 13 26 19 23 26 33 30 37 44
49 58 57 52 49 55 57 52 40 47 48 49 47 45 44 34 32 25 26 20 14 36 37 30 19 30 40 44 35 36 38 12 25 14 12 3 16 17 20 23 35 36 38 39 43
50 58 52 47 43 57 54 45 36 41 47 48 42 42 35 36 38 31 24 18 22 33 36 34 33 36 36 39 20 22 12 13 13 11 10 11 18 15 14 22 27 25 34 42 44
58 55 50 62 5 55 50 26 42 48 48 43 42 39 35 43 32 24 21 28 35 32 26 44 40 37 40 17 12 13 11 11 12 11 16 15 17 18 12 27 31 34 37 39 41
63 57 53 51 39 43 42 17 47 46 48 41 38 34 41 53 33 41 35 35 38 36 23 33 35 33 12 15 19 16 11 18 21 19 19 17 22 15 15 33 32 35 36 35 35
63 58 39 31 36 42 41 42 43 45 43 39 37 33 47 40 45 46 38 35 37 37 31 29 30 17 12 6 19 16 16 13 21 27 32 36 35 38 8 25 30 19 13 17 30
59 53 22 9 41 41 39 37 39 41 35 28 31 34 45 43 47 41 37 38 35 30 27 25 20 15 16 16 19 21 12 14 18 35 33 38 39 36 16 6 9 19 22 22 26
55 45 23 11 49 43 34 28 25 26 30 31 41 39 42 39 45 40 34 37 36 35 30 27 27 28 23 21 11 13 23 25 32 40 37 42 42 23 6 5 11 18 22 24 26
50 31 23 11 25 29 20 22 27 34 35 46 41 39 35 35 41 48 41 40 37 34 34 33 29 27 30 31 36 41 45 45 38 30 33 37 32 22 18 7 11 19 21 20 22
43 24 13 8 25 24 27 32 29 29 43 58 52 49 44 41 40 46 39 44 42 46 39 34 33 29 23 29 32 28 17 17 19 24 29 28 30 26 22 17 13 13 17 19 20
31 24 9 7 18 26 34 33 30 31 38 44 51 49 44 39 43 47 41 42 45 47 42 40 39 32 23 24 25 27 19 22 24 29 30 23 31 26 25 17 15 17 19 20 19
30 19 26 8 28 30 37 31 31 34 41 48 47 44 44 37 38 39 34 38 41 47 39 36 34 33 30 27 26 27 30 26 25 26 30 33 34 26 17 16 14 15 17 17 19
27 40 23 14 30 36 37 35 36 32 49 50 49 39 39 40 40 42 33 34 38 46 40 38 26 25 28 32 28 20 23 27 26 28 31 35 36 30 11 12 11 12 13 15 16
32 39 23 46 39 42 37 36 35 38 49 49 45 50 44 38 39 38 35 25 26 26 21 28 27 29 29 29 29 25 22 28 29 31 31 35 29 18 7 10 5 7 9 13 16
46 18 28 29 43 41 39 36 45 47 44 51 52 50 46 40 37 42 36 34 31 25 27 27 30 30 28 21 29 28 24 22 20 16 15 38 30 28 5 8 4 6 7 11 15
34 16 52 47 43 41 38 43 50 43 50 46 48 45 45 39 32 30 29 27 26 26 24 41 41 31 32 32 28 29 24 19 20 21 21 37 31 30 26 16 16 13 10 12 20
26 51 47 45 45 43 40 56 47 47 45 47 39 42 39 34 25 23 28 31 33 31 39 41 39 34 27 28 28 27 25 24 27 32 31 32 33 34 27 20 15 9 9 24 28
47 51 49 44 41 41 47 53 45 41 42 40 44 39 43 26 21 25 32 34 34 33 32 36 24 33 31 27 23 19 22 27 32 31 32 29 29 27 17 16 16 12 13 24 29
50 52 50 42 41 44 62 52 43 36 37 40 34 36 30 21 23 30 35 34 35 36 30 33 29 33 31 27 22 24 26 29 31 33 33 35 30 25 11 9 13 17 22 24 26
51 60 49 45 56 54 63 48 40 35 31 30 27 26 31 25 28 36 40 38 38 38 40 36 27 21 23 31 30 26 24 25 29 30 34 33 33 31 28 21 19 22 24 25 28
52 50 47 48 73 69 56 50 40 36 32 31 32 31 25 22 33 33 35 35 35 35 37 32 28 19 27 33 30 23 26 26 28 30 27 34 36 23 29 24 23 22 24 26 29
53 61 55 55 55 67 63 53 46 35 34 32 31 26 21 27 31 32 36 37 35 29 29 29 27 16 14 18 21 17 21 23 24 28 31 23 32 25 22 21 22 23 25 28 30
55 61 59 78 71 64 62 53 49 41 36 35 33 33 30 35 35 36 36 33 31 31 31 31 23 21 23 29 27 22 18 19 22 27 30 37 23 25 15 16 19 21 24 28 32
58 56 54 53 60 59 61 60 50 42 39 38 35 35 34 36 41 41 32 37 36 32 29 32 23 21 19 34 37 27 24 25 29 28 26 33 32 27 19 19 19 22 26 31 36
51 45 51 53 64 66 65 54 53 41 39 37 24 29 27 35 30 25 27 21 20 23 27 28 21 23 24 35 37 34 22 18 26 28 32 32 35 20 22 21 20 24 30 35 38
Wind_Direction
333 328 325 315 313 310 304 304 307 312 304 283 280 281 280 276 270 281 245 242 308 308 328 309 290 249 240 236 238 265 321 271 251 240 245 231 256 291 336 36 357 343 32 95 104
330 328 320 311 315 304 298 303 301 308 298 283 278 279 277 281 273 247 218 275 347 303 278 305 269 265 238 227 238 264 292 236 245 234 169 146 323 8 355 356 340 24 45 95 110
327 325 317 320 312 306 297 300 305 301 288 280 275 273 274 280 269 266 296 166 125 259 253 256 234 228 223 236 240 234 238 204 149 138 139 118 53 340 47 7 71 89 96 109 116
326 320 320 320 318 303 292 293 308 285 282 272 273 272 271 286 263 292 309 315 45 235 230 237 253 235 227 220 233 216 213 30 102 94 105 356 0 37 7 67 101 99 106 114 126
326 318 321 320 319 288 282 294 306 290 268 262 274 266 272 260 246 271 299 288 247 224 228 234 234 240 253 235 264 253 350 344 31 49 20 22 349 8 349 78 91 87 103 119 130
318 318 318 284 213 280 278 323 280 251 248 263 256 258 257 240 260 286 304 252 225 230 247 220 231 250 241 259 297 308 337 30 329 330 314 310 309 319 345 100 103 109 118 125 134
307 311 307 301 310 293 285 341 250 247 231 255 262 265 249 220 264 261 262 242 228 224 250 238 250 256 298 260 302 2 329 302 280 292 297 289 293 333 82 119 115 123 128 132 142
297 298 321 325 303 279 273 261 247 237 242 258 253 263 235 254 256 245 249 243 231 233 248 256 249 270 298 339 285 310 319 345 271 265 264 246 255 249 102 119 128 110 10 334 299
291 292 344 33 277 263 260 255 244 241 260 271 257 259 232 258 233 245 244 235 238 248 260 263 272 290 300 288 290 285 339 341 313 242 248 238 244 259 112 72 359 318 321 327 324
284 293 333 16 221 238 250 254 262 276 267 257 241 241 241 225 218 238 251 238 237 242 247 260 271 265 277 279 310 312 294 297 267 236 245 236 253 289 356 29 353 336 329 333 334
276 313 315 338 268 247 251 258 257 254 253 224 231 231 232 233 235 216 233 231 234 229 240 242 245 253 246 252 248 239 240 232 244 267 270 265 281 302 321 21 347 337 344 359 9
275 307 326 60 244 239 241 245 254 262 225 212 215 225 229 224 218 214 229 214 218 208 212 220 224 234 255 248 237 254 292 292 287 301 299 299 298 310 322 334 358 17 22 22 19
284 277 299 254 233 234 233 238 255 241 220 220 212 209 209 212 203 203 218 217 206 198 206 209 212 235 255 258 256 263 292 290 289 305 320 343 316 328 329 355 13 19 28 22 18
264 262 232 213 229 233 232 245 232 224 206 201 203 208 208 211 210 213 223 218 210 207 214 219 236 241 263 280 286 290 284 304 316 324 321 319 317 325 339 340 356 4 11 15 20
252 226 221 226 234 226 223 223 216 221 196 202 202 213 211 207 208 211 228 224 216 204 220 227 259 276 280 281 306 336 328 318 327 328 328 326 321 327 345 330 331 354 5 3 5
237 224 220 222 229 224 225 217 215 209 196 196 201 198 203 214 213 218 224 250 242 249 269 255 274 286 289 294 308 329 341 327 327 326 327 332 339 346 336 322 346 18 22 5 355
224 214 221 239 219 223 220 216 205 203 204 196 196 200 204 211 216 216 226 233 247 259 260 271 282 292 305 322 317 321 333 353 6 26 54 332 356 359 24 25 105 91 69 8 355
226 195 220 224 224 221 219 211 205 212 202 205 203 203 206 214 228 234 246 260 276 281 271 245 242 284 287 271 297 308 350 29 89 91 50 345 6 9 14 57 96 93 63 9 342
214 212 221 223 221 219 217 205 210 208 210 202 206 209 217 231 256 264 266 264 263 265 243 237 239 253 271 273 277 293 320 7 19 359 13 13 14 20 38 63 74 72 16 348 345
213 213 219 221 221 219 214 210 216 222 213 212 212 223 220 260 279 274 262 263 259 265 265 242 273 249 254 269 300 345 29 4 356 21 23 28 24 25 58 61 38 31 10 0 356
213 214 218 223 222 218 208 212 219 227 223 223 235 240 266 288 283 264 257 261 262 257 266 251 265 256 261 284 312 319 335 349 13 21 21 14 22 29 80 82 39 32 30 24 16
214 212 219 221 213 216 211 217 226 229 235 244 259 282 267 279 269 251 244 251 258 253 245 251 273 287 295 279 294 330 347 5 15 17 13 15 13 24 32 47 52 44 33 27 17
213 217 221 222 209 210 217 221 231 232 241 252 259 275 288 282 256 257 252 255 252 250 247 261 278 292 285 291 304 340 340 354 6 12 14 6 4 36 27 31 30 23 24 21 16
215 212 218 222 223 215 216 225 229 245 250 263 269 278 294 272 265 259 253 250 253 267 271 277 282 308 119 352 344 355 349 357 359 356 353 350 353 7 9 11 15 21 21 17 10
216 216 216 212 215 218 220 228 231 242 256 263 271 275 277 265 263 262 257 263 269 272 279 283 298 309 319 319 329 344 348 345 342 342 341 345 345 351 1 10 17 21 14 6 358
214 216 219 222 219 220 223 227 234 244 255 265 275 277 277 271 261 259 270 263 266 279 292 293 310 315 322 316 318 326 328 328 331 337 337 343 345 1 19 18 11 4 360 353 350
222 226 222 224 217 219 224 232 236 249 263 272 299 287 289 274 280 288 286 296 312 309 304 309 317 317 316 318 319 319 312 314 331 339 338 332 338 353 352 351 353 352 350 347 345